Dewpoint
71 71 70 69 69 68 68 66 56 60 59 54 54 56 55 63 63 61 61 62 60 63 66 61 59 61 61 60 58 62 63 57 57 48 45 59 71 71 72 72 72 72 72 73 73 73 75 75 75 75 75 76 76 76 76 76 76 76 76 76 76 76 76 76 76 76 76 76 75 75 75 75 75 76 75 75 75 75 74 75 75 74 75 75 74 75 75 74 75 74 74 74 74 74 74 74 74
71 70 69 69 68 68 64 66 55 56 57 55 55 59 59 62 62 60 60 61 63 64 66 60 64 66 65 62 62 61 61 64 65 64 66 70 71 71 72 72 72 72 73 73 73 74 73 75 76 76 76 76 76 77 77 77 76 76 76 76 76 76 76 76 76 76 76 75 75 75 75 75 76 75 75 75 74 75 75 75 75 75 75 75 74 75 75 75 75 75 75 75 75 75 75 75 75
71 70 69 70 68 68 67 66 55 55 53 51 54 58 62 59 60 61 62 64 65 66 64 64 65 67 63 61 59 61 57 65 65 66 67 70 69 70 72 73 73 73 73 73 73 73 73 75 76 76 76 76 76 77 77 76 76 76 76 76 76 76 76 76 76 76 76 75 76 75 76 75 75 75 75 75 75 75 74 75 74 74 75 75 75 74 75 75 75 75 75 74 75 74 74 75 74
71 70 68 68 65 68 62 60 57 55 53 52 53 60 60 60 61 63 65 65 65 63 62 61 62 65 65 60 61 63 63 63 65 66 67 68 68 71 73 73 74 73 74 74 74 74 75 75 77 77 75 76 76 76 76 76 76 76 76 75 75 76 76 76 76 76 76 75 76 75 75 75 75 75 75 74 75 74 75 74 75 74 75 75 75 74 75 74 74 74 74 75 75 74 75 75 74
71 71 69 69 65 60 61 59 57 57 53 55 53 60 61 61 62 63 65 66 65 64 64 65 61 64 68 62 64 59 61 66 66 67 67 70 72 72 73 73 73 73 74 74 74 75 75 76 77 76 76 76 76 76 76 76 76 76 75 75 75 76 76 76 76 76 75 75 75 75 76 75 75 75 75 74 75 75 75 75 75 75 75 74 75 75 75 74 75 75 75 75 75 74 74 74 74
70 71 72 71 63 68 64 58 56 56 58 60 58 59 61 63 63 64 64 65 65 65 65 64 60 61 62 63 65 64 65 62 65 67 69 70 72 73 73 74 73 73 74 74 75 75 75 76 76 76 76 76 76 76 76 75 75 75 76 75 75 76 76 76 76 75 75 75 75 75 76 75 75 74 74 75 74 75 75 75 75 75 75 75 75 75 75 75 75 74 74 74 75 74 74 74 74
69 70 69 69 67 67 58 57 56 57 60 61 61 62 63 64 64 64 63 63 64 65 66 63 62 62 61 63 65 66 67 67 66 67 70 71 72 73 73 73 73 74 74 75 75 75 76 76 76 76 76 76 76 76 75 75 75 75 75 75 75 75 76 76 76 75 75 75 75 76 76 76 75 75 75 75 75 74 74 74 74 75 74 74 75 75 75 74 74 74 74 74 73 73 74 74 74
72 67 66 61 60 62 57 58 57 59 60 62 63 63 64 64 64 63 62 61 61 61 63 62 62 62 62 64 61 66 68 69 69 71 71 71 72 73 73 73 73 74 74 75 75 75 77 76 76 76 76 76 76 76 75 75 75 75 75 76 76 75 75 75 75 75 75 75 75 76 75 75 76 75 75 75 75 74 74 74 74 74 74 74 74 75 75 74 75 75 75 74 73 74 73 74 74
71 69 68 61 58 60 58 57 58 62 62 63 63 65 65 65 64 63 63 64 64 62 62 61 61 59 62 64 64 67 69 70 71 72 71 72 72 73 73 73 73 74 74 75 75 76 76 76 76 76 76 76 76 76 75 75 75 75 76 75 75 76 76 75 75 75 75 75 75 75 75 76 76 75 75 75 74 75 75 74 74 74 74 74 74 74 74 75 75 74 74 74 74 74 74 74 74
68 68 61 60 60 55 56 57 57 60 61 63 64 64 65 66 65 66 62 62 63 62 62 61 63 61 63 62 64 67 68 71 71 71 71 72 72 72 73 73 74 74 74 75 75 75 75 76 76 76 76 76 75 75 75 75 75 76 76 75 75 76 76 75 75 75 75 75 76 75 75 75 76 75 74 74 74 74 74 74 74 74 75 74 74 75 74 74 74 74 74 73 74 74 74 74 74
64 67 67 60 56 54 54 56 59 61 62 64 65 66 66 66 65 65 65 63 61 61 62 62 62 62 62 63 65 70 70 70 70 70 71 71 72 72 72 73 74 74 74 75 75 75 76 76 76 76 75 75 75 75 75 75 76 76 76 76 75 75 75 75 75 76 75 75 75 75 75 74 75 75 74 74 74 74 74 74 74 74 74 74 74 74 74 74 74 74 75 74 74 74 74 74 73
62 63 64 57 56 55 56 57 59 61 62 63 63 65 66 65 65 64 62 60 61 61 61 62 61 63 62 62 64 69 69 69 70 70 71 71 71 72 73 73 74 74 75 75 75 75 75 76 76 76 76 75 75 75 75 75 76 76 76 75 75 76 76 76 75 75 75 75 75 75 74 75 75 75 74 74 75 75 75 74 74 74 74 74 74 74 74 74 74 74 74 75 74 74 74 74 74
63 63 61 57 57 58 59 58 59 60 61 62 63 66 68 66 65 65 64 61 61 61 60 65 63 62 60 62 67 68 68 69 70 70 70 70 71 72 72 73 73 74 74 75 75 75 75 75 75 76 75 75 75 75 75 75 75 75 75 75 76 76 75 76 76 75 75 75 75 74 74 75 74 75 75 74 75 74 74 74 74 74 74 74 73 73 73 74 74 73 73 74 75 74 74 74 74
64 64 62 55 60 59 58 58 60 57 59 63 66 66 67 66 66 66 65 61 60 60 62 63 63 63 63 64 65 66 68 69 70 69 70 70 71 71 71 72 73 74 74 75 74 75 75 75 76 75 75 75 75 75 75 75 75 75 76 75 75 76 75 76 76 75 75 75 74 74 74 74 74 74 74 74 74 75 74 74 74 74 74 73 73 73 74 74 74 74 74 74 75 74 74 74 74
64 66 63 59 57 59 61 57 58 58 59 64 66 66 66 67 67 67 65 61 63 63 63 64 63 60 60 62 62 65 68 69 69 69 70 70 70 71 71 72 73 74 74 74 74 74 74 75 75 75 76 75 75 75 75 75 74 75 75 76 76 76 75 76 75 75 75 75 75 74 74 75 74 74 75 74 74 74 74 74 74 74 74 73 73 74 74 75 75 74 73 74 73 73 74 74 74
66 66 63 58 56 57 58 59 61 60 60 65 66 67 65 66 68 66 65 69 64 62 63 62 64 63 61 62 63 66 68 68 69 69 69 70 70 71 71 72 73 74 74 74 74 74 74 74 75 75 75 75 75 75 75 75 75 76 76 76 76 75 75 75 76 75 75 75 75 75 74 74 75 75 74 75 74 74 74 74 73 74 73 73 74 75 74 74 75 74 73 74 74 74 74 74 74
66 66 59 57 55 57 57 60 61 57 63 65 67 65 61 64 68 67 69 70 61 62 61 63 62 63 62 63 66 68 68 68 70 69 69 70 70 70 71 72 73 73 74 74 74 74 74 74 74 74 75 75 75 75 75 75 76 75 75 76 76 76 75 76 75 75 75 74 75 74 74 74 74 74 75 74 73 74 73 73 74 74 74 74 74 74 74 74 75 74 74 74 74 74 74 74 74
68 61 59 55 56 56 59 58 62 63 62 65 65 66 64 63 66 66 69 65 64 64 62 62 63 63 64 65 67 68 67 69 69 69 69 69 69 70 70 71 72 71 73 74 74 74 74 74 74 74 74 74 75 75 75 75 76 75 75 76 77 75 75 76 77 76 76 76 76 76 76 74 73 74 75 73 74 74 74 74 74 73 73 74 74 75 75 75 75 75 73 74 74 74 76 75 76
62 60 58 55 56 57 61 61 63 62 63 64 65 67 64 63 65 66 63 63 63 62 62 62 63 64 65 66 67 67 68 69 69 69 68 68 68 68 69 70 70 71 72 73 74 74 74 74 74 74 74 75 75 75 75 76 75 75 75 76 76 76 76 77 76 76 75 75 75 75 76 75 75 74 74 75 74 74 75 73 74 73 74 74 75 75 75 75 75 75 75 75 76 76 74 74 74
63 60 57 57 57 58 63 63 63 63 65 64 65 66 65 66 64 65 62 62 62 60 60 62 62 63 64 65 66 66 68 68 69 68 68 68 68 68 68 69 70 71 72 73 73 74 74 74 74 75 74 75 75 75 75 75 75 75 75 75 75 75 74 75 75 75 75 74 75 75 75 76 75 75 74 75 75 74 75 74 73 74 74 75 75 76 76 76 76 76 75 76 75 75 74 74 74
62 61 57 57 59 58 62 65 64 65 64 65 66 66 64 66 65 66 62 60 61 60 61 61 62 63 64 65 65 66 68 68 68 68 68 68 68 68 69 69 69 71 72 73 74 74 74 74 75 75 75 75 74 75 74 74 75 75 75 75 75 75 74 74 74 74 74 74 74 75 75 75 74 74 75 74 74 74 74 74 74 75 75 75 76 74 74 75 74 73 73 75 74 74 73 74 74
53 61 60 59 58 57 61 66 65 64 65 65 65 63 63 65 65 66 62 59 59 60 60 62 63 64 64 64 65 67 67 67 68 68 68 68 67 67 69 69 70 71 72 72 73 74 74 74 74 75 75 74 74 75 74 75 75 74 74 74 74 74 74 74 74 74 74 74 74 75 75 74 74 74 74 74 73 74 74 74 74 74 74 74 75 73 74 74 74 74 73 73 74 74 73 73 74
53 54 54 57 58 57 63 65 64 64 64 64 64 64 65 63 63 66 63 61 64 62 61 63 64 64 64 64 65 66 67 67 67 67 68 67 67 68 69 69 70 70 71 72 73 73 74 74 74 74 74 74 74 75 75 75 74 74 74 74 74 74 74 74 74 74 74 75 75 76 74 74 74 74 74 74 74 74 74 74 74 74 74 74 75 74 74 74 74 74 73 73 74 74 74 74 74
53 52 50 50 53 55 63 63 64 63 64 64 66 66 63 62 61 66 63 67 65 66 62 63 64 64 64 64 65 66 66 67 67 68 68 67 67 68 69 69 70 71 71 72 72 73 74 73 74 74 74 74 74 74 74 75 74 74 75 76 75 76 75 74 74 74 74 75 75 76 75 74 74 74 74 74 74 74 74 74 74 74 74 75 75 74 74 74 74 74 74 74 73 74 74 75 74
52 52 52 51 50 50 62 63 63 63 63 66 65 64 63 63 63 65 63 66 66 65 63 63 64 64 64 64 65 66 66 67 67 67 68 67 67 68 69 69 70 70 70 71 72 72 73 73 74 74 74 74 74 74 74 74 74 74 75 75 74 76 74 74 74 74 73 75 75 76 75 74 74 74 73 73 73 73 74 74 74 74 74 74 75 74 74 74 74 73 74 73 73 73 73 75 75
52 51 51 50 49 53 62 63 63 63 64 65 63 63 65 67 65 63 64 65 65 64 62 63 63 63 63 64 65 66 66 66 67 67 67 67 67 68 68 69 69 70 70 71 72 72 73 73 73 74 74 74 74 74 74 74 74 74 74 74 74 76 74 74 74 73 73 74 74 75 76 74 74 74 73 73 73 73 73 74 74 73 74 75 74 73 75 74 73 73 73 73 73 73 73 74 75
48 45 45 43 39 51 61 62 63 63 65 65 62 63 65 66 63 59 63 65 65 65 62 63 63 63 63 63 64 65 65 66 66 67 67 66 67 67 68 69 69 70 71 71 72 72 73 73 73 74 74 74 74 74 74 74 74 74 74 74 74 75 74 74 74 73 73 73 74 74 75 75 74 74 73 73 73 73 73 73 73 73 74 74 75 74 75 75 74 74 74 73 73 72 73 74 75
38 38 36 35 47 54 61 62 62 63 64 64 63 63 64 63 64 61 62 64 64 62 62 63 62 63 63 63 64 65 65 66 66 66 66 66 66 67 68 68 69 70 70 71 71 72 73 73 73 74 73 74 74 74 74 74 74 74 74 74 74 75 75 74 73 73 74 73 74 73 74 75 75 74 73 73 73 73 73 73 73 73 73 73 75 75 75 75 74 75 74 74 74 74 74 73 75
37 38 35 32 57 58 61 61 62 62 62 63 62 61 61 61 60 62 62 63 63 61 62 62 62 62 63 63 63 64 64 65 66 66 66 66 66 67 67 68 69 69 70 71 71 72 72 73 73 73 73 74 73 73 74 74 74 74 74 74 74 75 75 74 73 73 73 73 73 73 73 74 75 74 73 74 75 73 73 73 73 74 74 74 75 75 75 74 75 74 74 75 74 74 73 73 75
37 35 33 28 56 55 59 61 62 61 61 62 59 52 55 59 61 62 63 63 62 60 61 62 62 62 62 63 63 63 64 65 65 65 66 66 66 66 67 68 69 69 70 71 71 71 72 73 73 73 73 73 73 73 74 73 73 73 74 74 75 75 74 73 74 73 73 73 73 73 73 73 75 74 73 74 74 73 73 73 73 73 74 75 75 75 74 74 74 73 74 73 74 74 72 73 73
33 33 26 28 49 49 57 60 62 60 61 62 60 51 51 56 60 61 63 62 61 60 61 61 61 61 62 62 62 63 63 64 65 65 65 66 66 66 66 67 69 69 71 71 71 71 72 72 73 72 73 73 74 73 74 73 73 73 73 73 74 74 74 73 73 72 72 73 73 73 73 73 74 73 74 74 73 73 73 73 74 74 75 75 75 74 74 73 73 73 73 73 72 73 73 75 74
31 31 30 28 38 30 54 59 61 59 61 62 57 52 52 54 59 62 63 62 61 59 60 61 61 61 61 61 62 62 62 63 64 64 65 65 66 66 66 67 69 69 70 71 71 71 72 72 73 72 73 72 73 73 73 73 73 73 73 74 73 74 74 73 73 72 72 72 73 72 73 73 74 73 74 74 74 73 73 73 74 74 75 75 75 74 74 73 73 72 73 72 72 72 74 72 72
33 29 30 28 23 40 55 57 60 61 60 61 57 52 54 55 59 62 63 61 61 59 59 60 60 60 60 60 61 62 62 62 63 63 64 65 66 66 66 67 68 69 70 70 71 71 72 72 72 71 72 72 72 73 73 73 73 73 73 74 73 74 73 73 72 72 72 72 72 72 73 73 74 73 74 74 74 73 74 74 74 75 75 75 75 74 73 73 73 72 72 73 71 72 73 71 71
34 29 28 28 24 50 53 57 59 60 60 58 59 56 54 54 59 61 62 61 60 58 58 59 59 60 60 59 60 61 61 61 62 63 63 64 65 65 66 68 68 69 70 70 71 71 71 72 72 71 72 72 72 72 73 73 73 73 73 73 74 73 72 72 72 72 72 72 72 72 72 73 74 73 74 74 74 74 74 74 74 75 75 75 74 74 73 74 73 73 71 72 73 72 72 71 71
33 30 28 25 24 33 50 54 56 59 59 58 58 58 57 55 59 61 61 61 59 59 58 58 59 59 59 58 59 60 61 61 61 62 63 64 64 65 65 67 68 69 69 70 71 71 71 72 72 72 72 72 72 72 73 73 73 72 72 72 73 73 72 72 71 71 72 72 71 72 72 73 74 73 74 74 74 75 75 74 75 75 75 75 75 74 73 74 74 73 72 72 73 72 71 71 71
29 29 28 26 27 25 22 40 45 58 58 57 58 56 57 57 57 60 61 61 59 59 58 58 59 59 59 58 58 59 60 60 61 62 63 64 64 64 65 66 67 68 69 70 71 71 71 72 72 72 72 72 72 72 72 72 72 72 71 71 72 72 72 72 72 71 72 72 72 72 72 73 74 73 73 74 74 75 75 75 75 75 75 75 75 74 73 73 74 73 72 71 71 73 74 72 72
31 31 29 29 28 27 27 25 25 58 58 57 57 57 57 57 56 59 60 60 59 59 58 58 58 59 59 58 58 58 59 60 61 61 62 63 64 64 65 66 66 67 68 69 70 70 71 71 71 71 72 72 72 71 71 71 70 70 71 70 71 71 72 72 72 71 72 72 72 72 73 72 74 73 74 74 74 75 75 75 75 75 76 75 75 74 74 74 74 74 73 74 72 71 72 73 72
32 30 30 29 28 28 28 25 24 51 56 56 57 56 56 57 56 58 60 59 58 58 58 58 58 58 59 58 58 58 58 59 60 60 62 63 63 64 64 65 67 66 67 69 69 70 71 71 71 71 71 71 71 71 71 71 71 70 70 70 70 71 71 72 71 72 71 72 73 73 73 73 74 73 74 74 75 75 75 75 75 75 75 76 75 74 74 75 75 74 74 74 74 73 73 72 72
31 30 30 28 28 28 28 25 23 42 56 54 54 55 55 55 55 57 59 59 59 59 58 58 58 58 58 58 58 59 58 58 59 59 60 62 63 63 64 65 66 66 66 68 69 70 70 70 70 71 71 71 71 71 71 71 71 71 70 70 71 70 72 73 71 72 73 72 73 73 74 73 74 74 74 75 75 75 75 75 75 76 76 76 76 75 75 75 74 74 74 74 72 73 74 72 71
30 29 30 28 29 26 24 25 23 52 53 52 52 52 52 54 55 55 58 59 59 59 59 59 59 58 58 58 58 59 58 58 58 59 59 61 62 63 63 64 65 66 66 67 68 69 70 70 70 70 70 70 71 71 72 71 71 71 71 70 71 71 71 73 73 74 74 73 73 74 74 74 74 74 74 75 75 75 75 75 75 75 76 76 76 75 74 75 74 73 73 74 73 69 69 69 70
31 30 29 28 27 26 26 27 22 22 47 51 49 49 50 52 52 54 57 59 59 59 59 59 60 60 59 59 58 59 59 59 58 59 59 60 61 62 63 64 65 65 65 66 68 68 69 69 69 70 70 70 70 71 72 71 72 70 69 70 71 70 71 71 72 72 73 74 74 74 74 75 75 75 75 75 75 75 76 76 76 75 75 75 75 74 74 74 74 73 73 75 72 69 70 71 70
29 30 30 29 28 27 25 24 19 18 17 18 46 40 44 49 52 53 56 57 58 58 58 58 59 59 59 58 58 59 59 59 59 59 59 59 60 62 63 64 64 65 65 66 67 68 68 69 69 69 70 70 70 71 71 71 71 69 67 67 67 68 68 69 70 71 72 73 73 74 75 75 75 75 75 75 75 76 75 75 76 75 75 75 75 74 74 75 74 73 74 74 73 72 72 70 68
29 29 30 29 28 28 28 27 23 23 19 31 45 33 32 45 51 53 56 56 57 57 57 58 58 59 59 58 58 58 59 59 59 59 59 59 60 61 62 63 64 64 65 66 66 67 68 68 69 69 69 70 70 70 71 71 70 69 68 67 67 67 68 68 70 71 72 73 74 74 75 75 76 76 75 75 75 76 76 75 75 75 75 75 76 75 74 75 75 75 74 74 74 75 73 71 71
28 30 29 29 28 27 26 25 21 23 29 30 50 39 35 39 47 53 56 56 56 56 56 57 57 58 59 59 58 58 58 59 59 59 59 59 59 60 61 62 63 64 65 65 66 67 68 68 69 69 69 70 70 70 71 70 69 69 68 67 67 67 67 68 69 71 72 74 73 74 74 75 76 76 76 76 76 76 76 75 75 75 75 74 75 75 74 74 75 75 75 75 74 76 74 73 72
28 28 24 24 25 25 23 20 18 20 20 19 42 47 41 42 46 53 55 55 55 56 56 56 57 58 58 59 58 58 58 59 59 59 59 59 59 59 61 62 63 64 64 65 65 66 67 68 69 69 69 70 70 70 70 70 70 69 68 67 67 67 66 67 69 71 72 74 73 73 74 74 75 76 76 76 76 76 76 75 75 75 75 74 76 75 75 74 75 75 75 75 75 75 74 73 71
28 28 28 24 21 20 18 17 18 23 20 21 35 44 39 41 42 52 55 54 54 55 56 56 56 57 58 58 58 58 58 59 59 60 60 60 59 59 60 61 62 63 64 65 65 66 66 67 68 68 68 69 70 70 70 70 70 70 68 68 67 67 67 67 68 69 71 72 72 72 73 73 74 75 75 75 76 76 76 76 75 74 75 74 76 75 75 75 75 75 75 74 74 75 75 74 73
26 24 24 23 23 24 37 25 24 21 17 19 18 41 42 37 41 51 52 53 54 55 56 57 57 57 57 58 58 58 58 58 59 59 60 60 60 59 59 60 62 63 64 64 64 65 66 67 67 68 68 69 69 69 70 69 69 69 68 68 67 66 66 66 67 68 70 71 71 71 72 73 73 74 75 75 75 76 76 76 75 74 75 76 76 76 75 75 75 75 75 74 75 75 74 74 76
26 24 23 20 25 25 25 26 26 18 17 22 18 39 42 35 39 39 49 50 52 55 55 56 56 57 57 58 58 58 58 58 59 59 59 60 61 60 59 59 61 62 63 64 64 64 65 66 67 68 68 68 69 69 69 69 69 69 68 68 67 67 66 65 65 66 68 70 71 71 71 71 72 73 74 74 74 75 76 76 76 76 75 75 76 76 76 75 75 75 75 74 74 75 75 75 74
22 25 24 20 23 21 19 19 16 16 17 22 23 38 41 40 40 36 37 39 38 48 54 55 56 57 57 57 58 58 58 58 58 59 59 60 60 60 59 59 61 62 62 63 63 63 65 66 67 67 67 68 68 69 69 69 69 68 68 68 67 67 66 66 65 66 68 69 70 70 70 70 71 72 72 73 73 74 75 75 76 76 75 76 76 76 76 76 76 75 75 74 74 74 75 75 74
12 21 22 20 16 15 14 21 20 18 18 18 17 27 38 34 28 38 39 42 43 47 49 51 54 56 57 58 58 58 58 58 58 58 59 59 60 60 60 59 60 61 61 62 63 64 64 65 66 67 67 68 68 69 69 69 69 68 69 68 67 68 66 66 65 65 66 69 70 70 70 70 70 71 71 72 73 73 74 75 75 76 76 76 76 76 76 76 76 75 75 75 74 75 75 75 74
13 20 20 21 22 17 15 18 15 14 18 18 19 30 28 22 34 35 36 42 49 54 54 54 54 54 56 58 58 58 58 58 59 59 58 59 59 60 60 59 59 60 61 61 62 63 64 65 66 67 67 67 68 68 68 68 68 68 68 68 68 67 66 66 65 66 66 68 69 70 70 70 69 70 71 71 72 73 74 75 75 75 75 75 76 76 76 76 76 75 76 75 75 75 75 75 74
16 19 21 19 21 33 17 22 20 20 16 15 19 17 21 24 31 34 34 42 55 55 55 55 55 56 55 57 58 58 59 59 58 58 59 59 59 60 60 60 59 60 61 61 61 63 63 64 66 66 67 67 67 68 68 68 68 68 68 68 68 68 68 67 67 67 67 67 69 70 70 70 70 70 70 71 71 72 72 73 75 75 75 75 75 75 75 75 75 75 75 75 75 75 75 75 74
20 18 19 18 21 20 29 39 33 24 18 14 28 19 29 30 28 31 31 49 54 55 55 55 55 55 56 57 58 58 59 59 59 59 59 59 59 59 59 60 59 59 60 60 62 62 63 64 65 66 66 66 67 68 68 68 68 68 68 68 67 67 67 66 65 65 65 66 68 69 69 69 70 70 69 70 70 71 72 73 74 74 75 75 75 75 75 75 75 75 74 74 74 75 75 75 74
18 19 19 22 23 22 22 17 21 21 15 17 24 27 27 29 29 29 32 51 54 54 55 55 55 55 55 57 57 58 59 59 59 60 60 59 59 59 59 59 59 59 59 60 62 62 63 63 64 65 66 66 66 67 67 68 68 68 68 67 67 67 66 66 66 65 65 66 67 68 68 69 69 69 69 69 70 70 71 73 73 74 74 75 75 75 75 75 75 75 74 74 74 75 75 75 75
17 16 21 22 20 19 26 21 15 14 15 17 24 30 29 27 27 26 36 47 53 53 54 54 54 55 55 56 58 59 59 59 59 60 60 59 59 59 59 59 59 59 61 60 61 61 62 62 63 64 65 65 65 66 67 68 68 67 67 67 67 67 67 67 67 67 66 65 65 66 66 67 68 70 71 70 70 69 70 71 73 73 74 74 74 74 75 75 75 75 75 74 75 75 75 75 75
17 18 14 17 24 26 23 23 24 19 17 17 20 28 27 33 26 26 32 47 53 52 52 53 54 54 55 55 57 59 59 59 59 60 60 60 59 59 59 59 59 59 59 60 60 60 60 61 63 64 64 65 66 66 67 67 67 68 67 68 67 67 68 67 67 67 66 65 65 66 66 66 67 69 69 70 69 69 69 70 71 73 73 74 74 74 74 75 75 75 74 74 74 74 74 74 74
12 12 12 13 16 21 24 26 25 21 22 20 22 26 28 32 28 28 39 51 52 52 50 51 53 54 54 55 56 59 59 58 59 60 60 60 60 59 60 59 59 59 60 60 60 60 60 60 61 63 64 64 64 65 66 67 67 68 68 68 67 67 66 66 66 66 66 66 66 67 66 66 68 68 69 69 69 69 69 70 70 72 73 73 74 74 74 75 75 74 74 75 75 75 74 74 74
13 12 11 12 13 19 22 20 23 26 24 20 25 26 31 32 26 29 48 52 52 52 50 49 50 52 54 55 56 58 61 57 59 60 60 60 60 60 60 60 60 59 59 59 59 60 60 60 60 62 63 63 64 64 66 67 67 67 67 67 67 67 67 66 66 66 66 66 66 66 66 68 67 68 69 69 69 69 69 69 70 71 73 73 74 74 74 74 74 74 74 74 74 74 74 74 74